This is the latest recevied weather packets stored in our database for station/object KC1BRV. If no packets are shown the sender has not sent any weather packets the latest 10 day(s).
| Time | Temp. | Humidity | Pressure | Rain* | Wind** | Luminosity | Snow |
|---|---|---|---|---|---|---|---|
| 1777914720 | 20° C | 31% | 1010.9 hPa | 0 mm | - | 750 W/m² | - |
| 1777914416 | 20° C | 32% | 1011.1 hPa | 0 mm | - | 753 W/m² | - |
| 1777914114 | 20° C | 30% | 1011 hPa | 0 mm | - | 753 W/m² | - |
| 1777913809 | 20° C | 30% | 1011.2 hPa | 0 mm | - | 751 W/m² | - |
| 1777913506 | 19.44° C | 33% | 1011.3 hPa | 0 mm | - | 757 W/m² | - |
| 1777913203 | 19.44° C | 32% | 1011.3 hPa | 0 mm | - | 762 W/m² | - |
| 1777912899 | 19.44° C | 31% | 1011 hPa | 0 mm | - | 637 W/m² | - |
| 1777912596 | 20° C | 31% | 1011.2 hPa | 0 mm | - | 410 W/m² | - |
| 1777912293 | 20° C | 31% | 1011.5 hPa | 0 mm | - | 745 W/m² | - |
| 1777911988 | 20° C | 30% | 1011.2 hPa | 0 mm | - | 738 W/m² | - |
| 1777911684 | 20° C | 31% | 1011.3 hPa | 0 mm | - | 712 W/m² | - |
| 1777911381 | 19.44° C | 30% | 1011.3 hPa | 0 mm | - | 758 W/m² | - |
| 1777911079 | 19.44° C | 31% | 1011.4 hPa | 0 mm | - | 751 W/m² | - |
| 1777910776 | 20° C | 31% | 1011.6 hPa | 0 mm | - | 751 W/m² | - |
| 1777910472 | 20° C | 34% | 1011.6 hPa | 0 mm | - | 745 W/m² | - |
| 1777910169 | 19.44° C | 32% | 1011.9 hPa | 0 mm | - | 745 W/m² | - |
| 1777909866 | 20° C | 30% | 1011.6 hPa | 0 mm | - | 737 W/m² | - |
| 1777909563 | 20° C | 31% | 1011.8 hPa | 0 mm | - | 732 W/m² | - |
| 1777909260 | 19.44° C | 30% | 1011.6 hPa | 0 mm | - | 726 W/m² | - |
| 1777908958 | 19.44° C | 32% | 1012 hPa | 0 mm | - | 721 W/m² | - |
| 1777908656 | 19.44° C | 31% | 1012 hPa | 0 mm | - | 721 W/m² | - |
| 1777908352 | 19.44° C | 31% | 1012.1 hPa | 0 mm | - | 711 W/m² | - |
| 1777908049 | 19.44° C | 33% | 1011.8 hPa | 0 mm | - | 706 W/m² | - |
| 1777907745 | 19.44° C | 32% | 1012 hPa | 0 mm | - | 698 W/m² | - |
| 1777907445 | 19.44° C | 33% | 1011.9 hPa | 0 mm | - | 689 W/m² | - |
* Rain latest hour (hover to see other rain measurements)
** Current wind speed in m/s (hover to see current wind gust speed)